Orbital Elements at Epoch 2459200.5 (2020-Dec-17.0) TDB
Reference: JPL 20 (heliocentric ecliptic J2000)
Element | Value | Uncertainty (1-sigma) | Units |
e | .2172103047690185 | 5.0198e-08 | |
a | 2.557634687699255 | 9.586e-09 | au |
q | 2.002090077696286 | 1.322e-07 | au |
i | 2.493577289703715 | 4.5296e-06 | deg |
node | 299.842883495378 | 9.5444e-05 | deg |
peri | 75.53743860656874 | 9.6233e-05 | deg |
M | 83.26256250786736 | 1.2465e-05 | deg |
tp | 2458854.955910434277 (2020-Jan-06.45591043) | 5.0564e-05 | TDB |
period | 1494.019262641672 4.09 | 8.3994e-06 2.3e-08 | d yr |
n | .2409607486341647 | 1.3547e-09 | deg/d |
Q | 3.113179297702223 | 1.1668e-08 | au |
|
| | Orbit Determination Parameters
Additional Information
|